[[{"header":{"parameterUnit":"m.s-1","parameterCategory":1,"la1":30.2991,"la2":30.254,"lo1":-89.0895,"lo2":-89.0444,"dy":0.0017,"dx":0.0017,"nx":28,"ny":28,"refTime":"2025-04-06T21:00:00:Z","depth":0,"parameterNumber":2,"parameterNumberName":"U-component_of_WINDS"},"data":[0,0,0,0,0,0,0,0,0,0,0,0,0,0,0,0,0,0,0,0,0,0,0,0,0,0,0,0,0,0,0,0,0,0,0,0,0,0,0,0,0,0,0,0,0,0,0,0,0,0,0,0,0,0,0,0,0,0,1.7956,1.7956,0,1.7905,1.7904,1.7904,1.7843,1.7842,1.7841,1.7841,1.7789,1.7788,1.7788,0,0,0,0,0,0,0,0,0,0,0,0,0,1.8005,1.8004,1.7956,1.7956,1.7955,1.7905,1.7904,1.7904,1.7843,1.7842,1.7841,1.784,1.7789,1.7788,1.7788,0,0,0,0,0,0,0,0,0,0,0,0,0,1.7972,1.8004,1.7957,1.7919,1.7915,1.7905,1.7904,1.7903,1.7844,1.7842,1.7841,1.784,1.7789,1.7788,1.7788,1.7811,0,0,1.7785,1.7785,0,0,0,0,0,0,0,0,1.7974,1.797,1.7925,1.7922,1.7917,1.7879,1.7902,1.7872,1.7844,1.7871,1.7841,1.7839,1.782,1.7817,1.781,1.7808,1.7806,1.7785,1.7785,1.7784,1.7784,0,0,0,0,0,0,0,1.7976,1.7972,1.7936,1.7925,1.792,1.7905,1.7899,1.7896,1.7854,1.7868,1.7864,1.7859,1.7818,1.7811,1.7808,1.7805,1.7785,1.7785,1.7784,1.7784,1.7821,1.7822,0,0,0,0,0,0,1.7984,1.7974,1.7938,1.7934,1.7943,1.7906,1.7899,1.7893,1.7854,1.7846,1.786,1.7856,1.7813,1.7809,1.7806,1.7831,1.7784,1.7784,1.7783,1.7819,1.7821,1.7822,0,0,0,0,0,0,1.7985,1.7981,1.794,1.7953,1.7947,1.7906,1.79,1.7892,1.7886,1.7847,1.784,1.7861,1.7812,1.7807,1.781,1.7828,1.7783,1.7783,1.7817,1.782,1.7822,1.788,0,0,0,0,0,0,1.7987,1.7982,1.7989,1.7954,1.7946,1.7944,1.7901,1.7892,1.7884,1.7879,1.7846,1.7839,1.781,1.7812,1.7809,1.7826,1.7782,1.7816,1.7818,1.7821,1.7876,1.7884,1.7891,0,0,0,0,0,1.7988,1.8008,1.799,1.7986,1.7955,1.7945,1.7941,1.7907,1.7886,1.7894,1.7869,1.784,1.7827,1.7812,1.7809,1.7826,1.7814,1.7818,1.7821,1.7873,1.7883,1.789,0,0,0,0,0,0,1.8047,1.8003,1.7982,1.7991,1.7972,1.7935,1.7944,1.7918,1.7905,1.79,1.7859,1.7852,1.786,1.7843,1.7828,1.7847,1.7816,1.7819,1.7857,1.7866,1.7873,1.7877,1.7781,0,0,0,0,0,1.8061,1.8056,1.8018,1.8029,1.8021,1.7984,1.7979,1.7954,1.7933,1.7925,1.7901,1.7882,1.7874,1.7869,1.7859,1.7874,1.7866,1.7884,1.7892,1.7898,1.79,1.7908,1.7916,1.7833,1.7833,1.7833,0,0,1.809,1.8065,1.8064,1.804,1.8023,1.802,1.7978,1.7976,1.7973,1.7925,1.7926,1.7908,1.7884,1.7893,1.7896,1.788,1.7922,1.7902,1.7907,1.7906,1.7912,1.792,1.7927,1.7835,1.7835,1.7835,0,0,1.814,1.8121,1.8128,1.8112,1.8086,1.8062,1.8064,1.8031,1.8017,1.8017,1.7981,1.7978,1.7964,1.7949,1.794,1.7986,1.7959,1.7984,1.8021,1.8029,1.8035,1.8041,1.8058,1.8064,1.7987,1.7987,1.7988,0,1.8179,1.8172,1.8136,1.8136,1.8127,1.8083,1.8091,1.8077,1.805,1.8045,1.8027,1.8009,1.7991,1.7996,1.8007,1.8001,1.8003,1.7987,1.8037,1.8043,1.8047,1.8063,1.8069,1.7991,1.799,1.799,1.799,0,1.8222,1.8217,1.8227,1.8201,1.8193,1.8197,1.8162,1.8159,1.8135,1.8113,1.8115,1.8091,1.8076,1.8075,1.8053,1.8078,1.8069,1.8045,1.8013,1.8059,1.8073,1.8079,1.7995,1.7994,1.7993,1.7992,0,0,1.8307,1.8262,1.8266,1.8254,1.8223,1.8219,1.8222,1.8207,1.8205,1.8188,1.819,1.818,1.8158,1.8147,1.8123,1.813,1.8169,1.8105,1.8104,1.8118,1.8196,1.8214,1.8221,1.8151,1.8152,1.8153,1.8198,0,1.8351,1.8353,1.8321,1.8331,1.8327,1.8286,1.8289,1.8271,1.8251,1.8245,1.8223,1.8216,1.8188,1.8181,1.8186,1.8163,1.8184,1.8159,1.8152,1.8153,1.8159,1.8229,1.8247,1.8291,1.8203,1.8204,1.8205,0,1.8403,1.839,1.84,1.8369,1.8366,1.8369,1.8353,1.8348,1.8327,1.8312,1.8301,1.8273,1.8275,1.8245,1.8247,1.8231,1.8227,1.8215,1.8216,1.8213,1.8181,1.8228,1.8304,1.8311,1.8213,1.8212,1.8212,0,1.8465,1.8449,1.8453,1.8444,1.8408,1.8411,1.8397,1.8374,1.8368,1.8354,1.835,1.8337,1.833,1.8321,1.8291,1.8272,1.8297,1.8264,1.8284,1.8285,1.8291,1.8291,1.8367,1.8289,1.8289,1.8289,1.8288,0,1.8518,1.8526,1.848,1.8482,1.849,1.8454,1.8463,1.8444,1.8425,1.8424,1.8389,1.8388,1.8349,1.8344,1.8321,1.8326,1.8323,1.8312,1.8305,1.8315,1.8316,1.8311,1.8307,1.829,1.829,1.8289,1.8289,0,1.8587,1.8557,1.8558,1.8525,1.8517,1.8524,1.8496,1.8497,1.8475,1.8474,1.8472,1.8438,1.8431,1.84,1.8386,1.837,1.8384,1.8371,1.8391,1.8386,1.8408,1.8407,1.8483,1.8492,1.8409,1.841,1.841,0,1.8623,1.8628,1.8595,1.8592,1.8579,1.8574,1.8567,1.8532,1.8526,1.8504,1.8508,1.8498,1.8488,1.848,1.8454,1.8443,1.843,1.8458,1.8428,1.8438,1.8431,1.8431,1.8431,1.8464,1.8465,1.8466,1.8467,0,1.869,1.8675,1.8666,1.8652,1.8645,1.8633,1.8618,1.8618,1.8579,1.8575,1.8567,1.856,1.8546,1.8537,1.8522,1.8508,1.8481,1.8477,1.8481,1.849,1.8501,1.8496,1.8408,1.8475,1.8474,1.8473,1.8473,1.8473,1.8744,1.8746,1.8724,1.8716,1.8701,1.8689,1.8689,1.8667,1.866,1.8645,1.8625,1.8621,1.8601,1.8578,1.8566,1.8562,1.8547,1.8553,1.8555,1.8557,1.8562,1.8502,1.856,1.8559,1.8559,1.8559,1.8559,0,1.8809,1.8792,1.8785,1.8766,1.876,1.8735,1.8719,1.8715,1.8711,1.8695,1.8686,1.8678,1.867,1.8644,1.8633,1.8635,1.8623,1.8633,1.8633,1.863,1.8575,1.8573,1.8643,1.8643,1.8643,1.8643,1.8643,1.8643,1.8842,1.8846,1.8828,1.8825,1.8808,1.8803,1.8796,1.8784,1.8771,1.8763,1.8756,1.8739,1.8719,1.8707,1.8698,1.8691,1.8689,1.8703,1.8692,1.8642,1.8634,1.8626,1.8623,1.8703,1.8703,1.8747,1.8747,1.8747]},{"header":{"parameterUnit":"m.s-1","parameterCategory":1,"la1":30.2991,"la2":30.254,"lo1":-89.0895,"lo2":-89.0444,"dy":0.0017,"dx":0.0017,"nx":28,"ny":28,"refTime":"2025-04-06T21:00:00:Z","depth":0,"parameterNumber":3,"parameterNumberName":"V-component_of_WINDS"},"data":[0,0,0,0,0,0,0,0,0,0,0,0,0,0,0,0,0,0,0,0,0,0,0,0,0,0,0,0,0,0,0,0,0,0,0,0,0,0,0,0,0,0,0,0,0,0,0,0,0,0,0,0,0,0,0,0,0,0,-6.7394,-6.7395,0,-6.7512,-6.7513,-6.7515,-6.749,-6.7488,-6.7486,-6.7483,-6.7601,-6.7606,-6.7611,0,0,0,0,0,0,0,0,0,0,0,0,0,-6.7143,-6.7148,-6.7394,-6.7395,-6.7397,-6.7512,-6.7513,-6.7515,-6.749,-6.7488,-6.7485,-6.7482,-6.7599,-6.7605,-6.7611,0,0,0,0,0,0,0,0,0,0,0,0,0,-6.7256,-6.7149,-6.7393,-6.7398,-6.74,-6.7511,-6.7513,-6.7515,-6.7491,-6.7488,-6.7484,-6.7481,-6.7597,-6.7604,-6.7612,-6.7725,0,0,-6.7636,-6.7639,0,0,0,0,0,0,0,0,-6.7249,-6.7265,-6.7396,-6.7398,-6.74,-6.7483,-6.7468,-6.7586,-6.7492,-6.7456,-6.7483,-6.748,-6.7564,-6.7574,-6.7603,-6.773,-6.7735,-6.7636,-6.7641,-6.7644,-6.7646,0,0,0,0,0,0,0,-6.7241,-6.7259,-6.744,-6.7398,-6.7401,-6.7393,-6.7406,-6.749,-6.7527,-6.7459,-6.7458,-6.7472,-6.7564,-6.7596,-6.7606,-6.7737,-6.7636,-6.7643,-6.7648,-6.7651,-6.7962,-6.7965,0,0,0,0,0,0,-6.7232,-6.7253,-6.7437,-6.7444,-6.7315,-6.7401,-6.7414,-6.746,-6.7526,-6.7533,-6.7475,-6.747,-6.7584,-6.7597,-6.761,-6.7746,-6.7644,-6.7651,-6.7656,-6.7958,-6.7963,-6.7967,0,0,0,0,0,0,-6.7227,-6.7249,-6.7432,-6.7348,-6.7371,-6.7408,-6.7459,-6.7464,-6.7495,-6.7538,-6.7544,-6.7501,-6.7582,-6.7599,-6.7697,-6.7749,-6.7655,-6.7662,-6.7954,-6.796,-6.7965,-6.8019,0,0,0,0,0,0,-6.722,-6.7247,-6.7291,-6.735,-6.7376,-6.7518,-6.7463,-6.7468,-6.7509,-6.7505,-6.7563,-6.757,-6.7581,-6.7685,-6.7704,-6.7758,-6.7668,-6.7949,-6.7957,-6.7963,-6.8012,-6.8025,-6.8036,0,0,0,0,0,-6.7211,-6.7301,-6.7294,-6.7316,-6.7432,-6.7521,-6.7536,-6.7548,-6.7513,-6.7557,-6.7585,-6.7568,-6.7741,-6.7695,-6.7717,-6.7774,-6.7946,-6.7954,-6.7962,-6.8007,-6.8023,-6.8036,0,0,0,0,0,0,-6.7247,-6.7309,-6.7301,-6.7413,-6.7462,-6.7517,-6.7572,-6.7564,-6.7623,-6.7616,-6.7627,-6.7641,-6.774,-6.7767,-6.7715,-6.7886,-6.7838,-6.7851,-6.7865,-6.788,-6.7892,-6.7883,-6.7674,0,0,0,0,0,-6.7268,-6.7336,-6.7386,-6.748,-6.7505,-6.7535,-6.7574,-6.7579,-6.763,-6.765,-6.7684,-6.7733,-6.7798,-6.7841,-6.7903,-6.8016,-6.8028,-6.8066,-6.8078,-6.8088,-6.8098,-6.8159,-6.8176,-6.7994,-6.7993,-6.7993,0,0,-6.7311,-6.7354,-6.7396,-6.7488,-6.7527,-6.7596,-6.7552,-6.7628,-6.7679,-6.7661,-6.7755,-6.7783,-6.7838,-6.7943,-6.7992,-6.7969,-6.8152,-6.8098,-6.8106,-6.8111,-6.8169,-6.8186,-6.8202,-6.7999,-6.7998,-6.7997,0,0,-6.7426,-6.7466,-6.7548,-6.7588,-6.7648,-6.7667,-6.7687,-6.7743,-6.7761,-6.7856,-6.7844,-6.7904,-6.8017,-6.8056,-6.8091,-6.8222,-6.8208,-6.8242,-6.8304,-6.8363,-6.8378,-6.839,-6.8436,-6.8452,-6.8252,-6.8253,-6.8253,0,-6.7473,-6.7578,-6.7591,-6.7668,-6.7708,-6.7697,-6.7779,-6.7817,-6.7894,-6.7921,-6.7895,-6.8036,-6.8072,-6.8186,-6.8218,-6.8247,-6.8269,-6.8234,-6.8375,-6.8388,-6.84,-6.8443,-6.846,-6.8256,-6.8256,-6.8255,-6.8255,0,-6.7632,-6.7705,-6.7764,-6.7839,-6.7887,-6.7966,-6.799,-6.8036,-6.8037,-6.8058,-6.8155,-6.8198,-6.8269,-6.8297,-6.8298,-6.8411,-6.8395,-6.8372,-6.8324,-6.8421,-6.8461,-6.8478,-6.8261,-6.826,-6.8259,-6.8258,0,0,-6.7771,-6.7854,-6.7875,-6.7909,-6.7974,-6.803,-6.8109,-6.8179,-6.8218,-6.8271,-6.8336,-6.8432,-6.8411,-6.845,-6.8456,-6.8508,-6.8608,-6.8478,-6.848,-6.85,-6.8734,-6.875,-6.8769,-6.86,-6.8603,-6.8606,-6.8729,0,-6.7891,-6.8031,-6.8045,-6.8169,-6.8236,-6.8227,-6.8295,-6.8342,-6.8364,-6.8423,-6.8448,-6.8515,-6.8483,-6.8506,-6.8558,-6.8585,-6.8654,-6.8576,-6.8659,-6.8662,-6.8644,-6.8791,-6.8808,-6.8922,-6.8745,-6.8748,-6.875,0,-6.805,-6.8109,-6.824,-6.8296,-6.8325,-6.8386,-6.8451,-6.8509,-6.8561,-6.8574,-6.8618,-6.8617,-6.8697,-6.8647,-6.8756,-6.8702,-6.8737,-6.8755,-6.876,-6.8767,-6.871,-6.88,-6.8959,-6.8975,-6.8775,-6.8773,-6.8771,0,-6.8137,-6.8249,-6.8342,-6.8372,-6.8439,-6.8482,-6.8512,-6.8562,-6.8603,-6.866,-6.8687,-6.8752,-6.8787,-6.8837,-6.8853,-6.8816,-6.8961,-6.8913,-6.8972,-6.8972,-6.9002,-6.9,-6.9167,-6.9027,-6.9027,-6.9026,-6.9026,0,-6.8269,-6.8349,-6.8382,-6.8439,-6.8529,-6.8544,-6.8632,-6.8659,-6.8703,-6.8765,-6.876,-6.8818,-6.8836,-6.8896,-6.8909,-6.8997,-6.9013,-6.9024,-6.9027,-6.9024,-6.9022,-6.9046,-6.9038,-6.9031,-6.903,-6.9029,-6.9028,0,-6.8381,-6.8406,-6.8507,-6.8563,-6.8579,-6.8642,-6.869,-6.8744,-6.8766,-6.8844,-6.8863,-6.8897,-6.8967,-6.8989,-6.9073,-6.9082,-6.9184,-6.918,-6.9167,-6.9167,-6.9224,-6.9218,-6.9411,-6.9437,-6.9281,-6.9283,-6.9284,0,-6.8462,-6.8524,-6.8587,-6.8629,-6.8661,-6.8727,-6.877,-6.8787,-6.8831,-6.8896,-6.8942,-6.9012,-6.9069,-6.9182,-6.9214,-6.9278,-6.9275,-6.9338,-6.9284,-6.9279,-6.9274,-6.927,-6.9275,-6.9347,-6.9349,-6.935,-6.9352,0,-6.8604,-6.8614,-6.8676,-6.8743,-6.8794,-6.8848,-6.8899,-6.8932,-6.8957,-6.9006,-6.9079,-6.9124,-6.9211,-6.928,-6.9346,-6.9375,-6.9367,-6.9369,-6.9385,-6.9383,-6.9372,-6.9377,-6.9193,-6.9364,-6.9362,-6.9361,-6.9361,-6.936,-6.8703,-6.8757,-6.881,-6.8879,-6.892,-6.8968,-6.9022,-6.9051,-6.9112,-6.9185,-6.9191,-6.927,-6.932,-6.9408,-6.9441,-6.9501,-6.9483,-6.9508,-6.9514,-6.9519,-6.9523,-6.9364,-6.9514,-6.9513,-6.9513,-6.9513,-6.9512,0,-6.8843,-6.8877,-6.8941,-6.9013,-6.9067,-6.9057,-6.9113,-6.9159,-6.9228,-6.9276,-6.9333,-6.9416,-6.9484,-6.9521,-6.9587,-6.9629,-6.9627,-6.9645,-6.9642,-6.9648,-6.9537,-6.9515,-6.9646,-6.9646,-6.9646,-6.9646,-6.9646,-6.9646,-6.8923,-6.9014,-6.903,-6.914,-6.9173,-6.9251,-6.9284,-6.9328,-6.9366,-6.946,-6.9516,-6.9541,-6.9584,-6.9654,-6.9715,-6.9724,-6.9748,-6.9769,-6.9776,-6.967,-6.9656,-6.9643,-6.9623,-6.9774,-6.9775,-6.9882,-6.9883,-6.9884]}]]